This is the latest recevied weather packets stored in our database for station/object PY3MO-11. If no packets are shown the sender has not sent any weather packets the latest 10 day(s).
| Time | Temp. | Humidity | Pressure | Rain* | Wind** | Luminosity | Snow |
|---|---|---|---|---|---|---|---|
| 1777822743 | 15.56° C | 51% | 1022.4 hPa | 0 mm | - | - | - |
| 1777822443 | 16.11° C | 50% | 1022.4 hPa | 0 mm | - | - | - |
| 1777822142 | 16.11° C | 51% | 1022.4 hPa | 0 mm | - | - | - |
| 1777821842 | 16.11° C | 52% | 1022.7 hPa | 0 mm | - | - | - |
| 1777821542 | 15° C | 51% | 1022.5 hPa | 0 mm | - | - | - |
| 1777821242 | 15° C | 51% | 1022.6 hPa | 0 mm | - | - | - |
| 1777820944 | 15° C | 50% | 1023 hPa | 0 mm | - | - | - |
| 1777820644 | 15.56° C | 51% | 1022.7 hPa | 0 mm | - | - | - |
| 1777820344 | 15° C | 52% | 1022.8 hPa | 0 mm | - | - | - |
| 1777820043 | 14.44° C | 52% | 1023 hPa | 0 mm | - | - | - |
| 1777819743 | 15.56° C | 53% | 1023.2 hPa | 0 mm | - | - | - |
| 1777819443 | 15° C | 55% | 1023.1 hPa | 0 mm | - | - | - |
| 1777819143 | 14.44° C | 55% | 1023.4 hPa | 0 mm | - | - | - |
| 1777818843 | 13.89° C | 55% | 1023.3 hPa | 0 mm | - | - | - |
| 1777818542 | 13.89° C | 55% | 1023.3 hPa | 0 mm | - | - | - |
| 1777818242 | 14.44° C | 55% | 1023.4 hPa | 0 mm | - | - | - |
| 1777817942 | 13.89° C | 53% | 1023.6 hPa | 0 mm | - | - | - |
| 1777817642 | 14.44° C | 52% | 1023.5 hPa | 0 mm | - | - | - |
| 1777817344 | 14.44° C | 53% | 1023.5 hPa | 0 mm | - | - | - |
| 1777817044 | 14.44° C | 58% | 1023.5 hPa | 0 mm | - | - | - |
| 1777816743 | 13.33° C | 60% | 1023.8 hPa | 0 mm | - | - | - |
| 1777816443 | 12.78° C | 60% | 1023.7 hPa | 0 mm | - | - | - |
| 1777816143 | 12.22° C | 62% | 1023.6 hPa | 0 mm | - | - | - |
| 1777815843 | 12.78° C | 59% | 1023.5 hPa | 0 mm | - | - | - |
| 1777815543 | 12.78° C | 60% | 1023.7 hPa | 0 mm | - | - | - |
* Rain latest hour (hover to see other rain measurements)
** Current wind speed in m/s (hover to see current wind gust speed)